Wind_Speed
30 30 30 30 31 31 31 32 33 34 35 35 35 35 36 37 38 40 41 42 43 44 46 46 47 48 48 48 49 49 49 49 49 48 47 48 49 48 49 53 54 52 50 50 52 53 51 50 48 48 48 49 50 49 49 49 47 48 49 47 45 47 47
31 31 31 31 31 32 32 32 33 34 35 36 37 37 37 37 38 40 41 43 44 45 46 47 48 49 50 51 52 52 52 51 52 51 51 51 51 49 49 53 55 55 52 51 54 56 55 54 52 50 49 50 50 50 51 50 48 49 50 48 46 47 48
32 32 32 33 33 33 34 34 34 34 35 36 37 38 38 39 39 40 42 43 44 45 46 47 49 50 51 52 53 54 54 54 53 54 54 54 53 50 49 51 55 57 55 53 54 55 56 56 55 54 53 52 50 49 50 49 49 50 51 49 47 48 48
33 34 34 34 35 34 35 35 35 36 36 36 37 38 39 40 40 41 42 43 45 46 47 48 49 50 52 54 55 56 56 57 56 56 56 56 55 53 50 50 53 57 57 56 54 54 56 58 58 57 56 56 53 49 49 48 48 49 51 50 49 48 49
34 35 36 36 36 37 37 36 37 37 37 38 38 39 40 40 41 42 43 44 45 46 47 48 49 50 51 53 55 57 58 58 58 58 58 58 57 55 53 50 52 56 57 56 55 54 56 59 59 58 58 59 58 54 52 50 49 49 49 50 50 49 50
35 36 37 38 38 39 40 39 39 39 39 39 39 40 41 42 42 43 44 44 45 47 48 48 49 51 52 52 54 57 59 59 60 60 60 59 59 57 55 53 53 56 57 56 56 55 55 57 58 58 58 59 60 59 57 55 53 51 50 50 50 49 49
36 37 38 39 39 40 41 42 42 42 41 41 41 41 42 43 43 44 44 45 46 46 48 49 50 50 52 53 53 55 58 59 60 62 62 61 60 60 58 57 56 55 56 56 58 58 55 52 54 56 55 58 61 61 61 60 56 54 53 51 50 49 48
38 39 40 40 41 42 42 43 44 45 44 43 43 43 43 43 44 45 45 45 46 47 48 49 50 50 51 53 53 54 56 58 59 62 63 63 62 62 61 60 59 57 55 54 55 59 60 53 50 52 54 57 59 60 63 63 59 56 55 53 52 51 48
39 40 41 42 43 43 44 44 45 45 46 45 45 44 44 44 44 45 46 46 47 47 48 49 50 51 51 52 53 54 54 56 57 59 61 63 63 64 63 62 61 59 58 55 52 55 61 60 52 49 52 57 57 57 62 65 63 59 56 55 55 53 50
41 42 43 43 44 44 45 45 45 45 46 46 46 46 45 45 45 45 46 47 47 47 48 49 50 51 52 52 52 53 54 54 56 57 59 61 62 64 65 64 64 62 60 58 55 53 58 63 61 53 49 52 54 54 58 63 64 62 59 57 57 55 52
43 44 45 45 45 45 45 45 45 45 45 46 46 47 46 46 46 46 46 47 47 48 48 49 50 51 52 53 53 53 53 53 55 57 57 58 60 62 64 64 65 65 62 61 59 57 58 61 64 61 51 47 48 49 50 54 58 60 61 61 58 56 54
44 45 45 46 46 46 46 46 45 45 45 46 46 47 47 46 46 46 46 46 47 47 48 49 49 50 51 53 53 53 53 53 54 56 56 57 58 60 62 63 63 65 65 64 62 61 61 59 59 61 54 47 45 45 45 48 51 54 59 63 61 57 55
45 46 46 46 47 47 47 46 46 45 45 46 46 47 47 47 46 46 46 46 46 47 48 48 49 49 50 51 52 52 53 54 55 55 56 56 57 58 60 61 62 63 65 66 64 62 64 61 55 55 53 49 47 47 47 49 51 51 53 61 64 60 58
45 46 46 47 48 48 47 47 46 46 45 46 47 48 48 49 48 47 46 46 47 47 47 48 48 49 49 49 51 51 51 52 54 55 55 56 56 57 59 60 61 62 64 66 65 64 65 64 59 56 55 53 52 52 51 50 52 52 50 55 61 63 62
45 46 47 47 48 48 47 47 47 46 46 46 47 48 49 50 50 49 48 47 47 48 48 48 48 49 49 49 49 50 50 50 52 53 54 54 55 55 57 59 60 61 63 64 65 65 66 66 64 62 59 58 57 56 55 52 51 49 47 50 56 60 62
46 46 47 48 48 48 48 48 47 47 47 47 48 48 49 50 51 51 50 49 49 49 49 49 49 49 49 49 49 49 49 50 50 51 52 53 54 55 56 57 59 60 61 63 63 65 66 67 68 67 64 63 61 59 59 57 54 50 47 49 53 55 56
46 47 47 48 48 48 48 49 49 49 48 48 48 49 49 50 51 52 51 51 51 51 50 50 50 50 50 50 50 50 50 50 50 51 51 52 53 54 55 56 57 59 60 62 63 64 65 66 69 69 67 66 65 63 60 60 60 57 53 54 54 52 51
45 46 47 48 48 48 49 49 50 50 50 50 50 50 51 51 52 53 53 53 53 53 53 52 52 52 52 52 52 51 51 51 51 51 51 52 52 53 55 56 56 57 59 61 62 63 64 65 67 69 69 68 68 66 64 61 61 59 58 59 57 55 52
45 45 46 47 47 48 48 49 50 50 50 51 51 51 52 52 53 53 54 54 54 54 54 54 54 54 54 55 54 54 53 53 53 52 52 52 53 53 55 56 57 56 57 60 60 62 63 64 65 65 66 68 69 67 65 63 60 58 59 61 59 58 57
44 44 45 46 46 47 47 48 49 49 50 50 51 52 52 52 53 53 54 55 55 56 55 55 55 55 55 56 56 56 56 55 54 54 53 53 54 54 55 56 57 56 57 58 59 60 62 64 64 63 63 66 67 68 68 66 62 60 60 60 60 60 59
44 44 45 45 45 46 47 47 48 48 49 50 50 51 52 52 53 53 54 54 55 56 56 56 56 56 56 56 57 57 57 57 57 56 55 54 54 55 55 56 57 57 57 57 58 60 61 63 64 63 61 62 64 67 70 68 64 62 61 59 61 63 61
44 45 45 45 46 47 47 48 48 48 49 50 50 51 51 52 53 53 54 55 55 56 56 56 56 56 56 56 56 57 57 57 58 58 57 56 56 56 56 57 58 58 57 56 57 59 60 62 63 63 62 61 62 65 68 67 65 65 63 60 62 64 63
45 45 45 46 47 47 48 48 49 49 50 50 51 51 51 52 52 53 54 55 56 56 57 56 56 56 57 57 57 58 58 58 58 59 59 58 57 57 57 58 59 59 58 57 56 58 59 61 63 63 62 61 61 62 65 64 65 66 65 63 64 66 64
45 45 45 46 47 47 47 48 48 49 50 50 51 52 52 52 53 53 54 54 55 56 56 57 57 57 58 58 59 59 59 59 59 60 60 59 59 58 58 59 59 60 60 58 57 57 58 60 63 63 63 61 60 61 62 62 63 64 62 62 65 66 63
44 45 46 46 47 47 48 48 48 49 49 50 51 52 52 53 53 54 55 55 55 56 56 56 57 57 58 59 60 61 61 61 61 61 61 60 60 60 60 60 60 61 61 59 58 57 57 59 61 63 64 62 61 62 62 62 63 62 60 60 64 66 64
45 46 47 47 48 48 48 48 48 49 50 50 51 52 52 53 54 55 55 56 56 56 56 56 57 57 58 59 61 62 63 63 63 62 62 62 62 61 61 61 61 61 61 60 59 58 57 57 59 63 65 64 63 63 63 63 64 63 62 63 65 65 66
46 46 46 47 47 47 48 48 49 49 50 51 52 52 53 53 54 55 55 56 57 57 57 57 58 58 58 59 61 63 64 64 64 63 63 63 63 63 62 62 62 61 61 60 59 58 57 57 58 61 65 66 65 64 63 64 65 64 62 64 64 63 64
45 46 46 46 47 47 48 49 49 50 50 51 52 52 53 53 54 54 55 55 56 56 57 58 59 59 60 60 61 63 64 65 66 65 64 63 63 63 63 63 62 62 61 60 59 57 57 57 57 59 63 66 66 65 64 64 66 66 64 64 63 61 62
46 46 46 47 47 48 48 48 49 50 50 50 51 51 52 53 53 54 54 55 56 56 56 58 59 60 60 61 62 63 65 66 66 66 65 64 63 63 63 63 63 62 62 60 58 57 56 57 58 59 61 65 66 67 67 66 65 66 65 64 62 61 60
48 48 47 48 48 48 48 48 48 49 49 49 49 50 51 52 53 53 54 55 55 56 56 57 59 60 61 62 62 63 64 66 66 66 66 64 62 62 62 63 62 63 62 59 57 56 56 57 58 58 59 63 66 68 67 66 65 65 64 62 63 63 62
48 48 47 47 48 48 48 47 47 47 47 47 49 50 51 52 52 53 54 55 56 56 56 57 58 59 60 62 62 63 64 66 65 64 64 63 61 60 61 61 62 63 61 58 56 56 55 56 58 57 58 61 64 66 66 65 65 65 63 61 62 63 63
46 46 46 46 46 46 45 45 45 46 47 48 50 51 52 52 52 52 53 54 54 54 54 53 54 55 56 57 59 61 63 64 63 62 62 61 59 58 59 60 61 62 60 57 56 55 55 56 57 57 57 58 61 64 65 65 65 65 63 62 62 63 63
45 45 45 45 44 43 43 43 44 46 48 49 50 50 51 51 51 50 50 50 50 50 50 49 48 49 50 51 54 58 61 61 60 59 59 58 56 55 56 57 59 60 59 56 55 55 55 55 56 57 56 54 56 61 64 65 66 66 64 63 63 63 64
45 44 44 42 41 41 42 43 45 47 47 47 47 47 47 48 47 46 47 48 49 49 49 47 46 46 46 47 49 53 56 56 55 54 53 52 51 51 53 55 57 59 58 55 54 55 54 54 56 56 54 52 54 58 62 65 67 67 66 66 64 62 64
43 42 41 40 39 40 41 44 45 45 43 43 43 44 45 45 45 44 46 47 47 47 46 45 45 45 45 44 45 47 49 50 50 48 47 47 48 49 52 54 56 58 57 54 54 54 54 55 56 56 54 53 53 55 59 64 68 68 67 67 65 63 65
40 39 38 37 38 40 42 43 42 40 40 40 41 43 44 45 45 45 46 45 44 43 42 40 41 42 42 41 40 41 44 47 48 46 45 45 46 48 50 53 55 56 55 54 55 55 55 56 57 56 55 54 52 52 55 62 67 69 68 68 66 64 64
37 36 36 37 39 40 41 40 38 38 38 39 40 42 44 45 45 46 44 40 37 37 35 34 35 37 38 38 37 37 40 43 44 44 45 45 46 48 50 52 54 55 55 55 56 56 56 57 58 57 55 54 51 50 53 60 65 68 68 68 66 64 64
Wind_Direction
264 264 263 262 261 260 260 260 261 261 262 262 261 258 255 253 251 250 249 246 244 242 242 242 242 240 238 237 235 235 235 236 237 240 240 239 242 243 243 244 241 239 242 245 245 245 245 245 245 246 246 245 244 243 243 243 244 246 249 250 250 251 252
267 267 267 266 266 265 264 262 261 260 261 261 262 261 259 256 253 252 251 249 247 245 243 243 243 242 241 239 238 237 236 236 237 239 240 241 242 243 244 245 242 239 240 242 243 243 244 245 244 246 247 247 247 246 245 245 244 245 247 248 248 250 252
270 269 269 269 269 268 268 267 265 263 262 261 261 261 261 259 256 253 252 251 249 247 246 244 243 243 243 242 241 240 239 239 238 239 240 241 242 243 245 244 242 240 240 242 243 243 243 245 245 245 246 248 249 249 249 249 248 247 248 248 247 249 251
274 274 274 274 274 273 272 271 269 267 265 264 262 261 261 260 259 256 254 252 251 249 247 246 245 243 243 244 244 243 242 241 241 241 242 243 243 243 245 243 239 239 242 242 243 244 243 244 245 245 246 247 247 249 251 251 251 250 250 250 249 249 251
277 278 279 280 280 279 278 276 274 271 269 267 265 263 261 260 259 258 256 255 253 252 249 248 247 245 244 243 245 246 245 244 243 243 243 244 245 245 245 244 239 238 240 242 242 244 245 244 244 245 247 248 247 247 248 250 250 252 252 252 250 249 250
279 281 282 282 283 282 282 280 278 275 272 270 267 265 263 261 260 258 257 256 254 254 253 251 249 248 246 244 244 245 246 246 245 245 244 244 246 246 246 246 244 240 239 240 241 242 243 243 243 244 246 248 249 247 247 248 249 251 253 253 253 251 251
281 282 283 283 283 283 282 282 281 279 276 273 270 267 264 262 260 259 257 256 254 253 253 253 252 250 249 247 245 244 245 246 246 247 247 245 246 246 246 246 247 245 242 241 242 240 240 240 239 241 244 247 249 249 247 247 247 249 252 253 254 254 252
282 283 283 283 283 282 281 281 280 280 278 276 273 270 267 264 262 260 258 256 255 253 252 252 252 251 250 249 248 246 245 245 246 246 247 247 246 246 247 246 247 248 245 244 244 241 238 236 235 238 240 243 247 248 248 248 246 247 250 251 253 254 253
282 282 282 282 281 281 280 279 279 278 278 276 275 272 269 267 264 261 259 257 255 253 252 250 250 251 250 249 249 248 247 246 246 245 246 246 247 246 247 247 246 247 246 246 246 242 238 236 237 240 239 239 243 247 247 248 247 245 247 249 251 252 252
281 281 281 281 280 279 279 278 277 276 276 275 274 273 271 269 266 264 262 260 257 255 253 250 249 248 249 249 248 248 247 247 246 246 245 245 246 247 246 246 246 246 246 245 244 243 240 238 239 241 241 240 242 246 248 249 248 247 246 246 248 250 251
281 281 281 281 280 279 278 277 276 275 274 273 272 272 271 269 267 266 264 262 260 257 255 252 250 247 247 247 248 247 246 246 246 246 245 244 244 246 246 245 245 245 245 245 243 243 243 243 240 238 241 244 243 243 247 250 250 248 246 246 246 247 249
281 281 281 280 279 278 277 276 275 274 272 272 271 271 270 269 268 266 265 263 261 259 257 255 252 249 247 246 246 246 246 246 246 246 246 244 243 244 245 245 245 244 245 244 243 243 245 247 240 233 237 245 246 244 245 248 250 248 246 245 245 244 245
280 280 280 279 278 277 276 275 273 272 271 271 271 270 270 269 268 266 265 264 262 260 259 257 255 252 249 247 245 245 245 246 246 246 246 246 244 242 244 245 244 244 244 244 243 243 246 248 241 232 233 240 245 246 245 245 249 250 247 245 245 244 243
279 279 278 277 277 276 275 274 273 272 271 270 270 270 270 269 268 267 265 264 262 261 259 257 256 254 251 249 247 245 245 246 247 247 247 247 246 243 242 243 244 243 244 244 243 242 244 246 245 239 236 237 241 245 246 247 250 251 249 247 245 244 243
276 276 276 275 275 275 274 273 273 272 270 270 269 269 269 269 269 268 266 265 263 262 260 258 256 255 253 251 249 248 246 245 246 246 247 247 247 246 244 243 243 243 243 243 243 242 241 243 245 244 241 240 241 244 246 248 251 250 249 250 249 246 245
275 275 274 274 274 274 274 273 273 271 270 269 268 268 268 268 268 268 266 265 264 262 261 259 257 256 254 252 251 249 248 247 246 245 246 246 246 247 246 244 243 242 242 242 242 242 242 241 243 244 244 244 243 245 246 247 248 247 245 248 252 252 249
274 274 274 275 275 274 275 274 273 272 271 270 269 268 268 268 268 267 266 265 264 262 261 260 259 258 256 254 252 251 250 249 248 246 246 245 245 245 246 246 244 243 242 241 240 241 242 242 241 241 243 244 244 245 246 247 248 249 246 247 250 254 254
274 274 274 275 275 275 275 275 274 274 273 271 270 269 268 267 267 267 266 265 264 262 261 260 260 259 258 257 255 253 252 251 250 248 247 246 245 245 245 246 245 244 243 242 240 240 241 242 242 242 241 242 244 245 246 247 248 251 250 248 249 253 254
273 273 274 274 274 275 275 275 274 274 273 272 271 270 268 267 266 266 266 265 264 262 261 261 260 259 259 258 257 255 254 252 251 250 249 247 246 245 245 245 244 244 243 243 241 240 240 240 241 242 242 241 242 243 245 246 246 248 249 248 249 251 252
274 274 274 274 275 275 275 274 274 274 273 272 271 270 268 267 266 265 264 265 264 263 262 261 260 260 259 258 257 257 256 255 253 252 251 249 247 246 246 245 245 243 243 243 242 241 241 240 240 241 242 242 241 240 242 244 244 245 247 248 249 249 250
275 276 276 276 276 276 276 275 275 274 273 272 271 270 268 267 266 265 264 264 263 263 262 261 260 260 259 258 257 257 256 255 255 254 253 251 249 247 245 246 246 244 242 242 242 242 242 241 240 239 240 241 241 240 240 242 243 244 245 247 248 248 249
277 278 278 278 278 277 277 277 276 276 275 274 272 271 270 268 267 265 265 264 263 263 263 262 262 261 260 259 258 257 256 255 255 254 254 252 251 249 247 245 246 246 244 242 241 241 241 241 240 238 238 240 240 240 239 240 241 242 242 244 246 246 247
279 279 279 279 279 278 279 278 278 277 277 276 274 273 271 270 269 268 266 265 265 264 264 263 263 263 262 260 259 257 256 255 254 254 253 253 252 250 248 246 245 246 245 243 241 241 240 240 240 238 238 238 239 240 239 238 239 240 241 242 244 246 248
280 280 280 280 280 280 280 280 279 279 278 277 276 274 273 272 271 270 269 267 266 265 265 265 264 264 263 262 260 258 256 255 254 254 253 253 251 250 248 246 245 245 245 244 243 242 240 239 239 238 238 237 237 238 238 236 238 239 238 239 241 243 246
281 281 282 282 282 282 282 282 281 280 279 278 277 276 275 274 273 272 270 269 268 266 265 265 265 264 263 263 261 260 258 256 254 253 253 252 251 250 248 246 244 244 245 245 244 243 242 239 238 237 237 236 236 237 236 235 237 237 236 237 239 241 243
282 282 283 283 283 283 283 283 282 281 280 279 278 277 276 275 275 273 272 270 269 267 266 265 264 264 263 263 262 261 260 258 256 254 252 252 251 249 247 245 244 243 244 245 245 245 243 241 238 236 236 235 235 235 235 234 235 236 235 236 239 240 242
283 283 283 284 285 285 284 283 283 282 280 279 278 277 276 276 275 275 274 272 270 269 267 266 265 263 263 262 262 261 261 259 258 255 253 251 251 249 247 245 243 242 242 244 245 245 244 242 239 236 235 234 234 234 234 233 233 232 232 235 238 240 241
283 283 285 285 286 285 284 283 282 282 281 280 279 278 277 276 275 274 273 272 271 269 268 266 265 263 262 261 260 260 259 259 258 256 254 251 249 248 246 244 242 240 241 243 244 245 245 243 240 236 233 233 232 233 233 233 233 232 230 231 236 239 239
284 285 286 286 286 286 285 285 283 282 282 281 280 279 277 276 275 274 273 273 272 270 268 267 265 263 262 260 259 258 258 257 257 256 254 251 248 246 245 243 241 239 239 241 243 244 244 245 242 238 233 231 231 232 231 231 232 232 231 229 231 235 237
285 286 286 286 286 286 286 285 284 283 283 282 281 280 279 278 277 276 275 274 273 271 269 267 265 263 262 260 258 257 256 255 255 254 253 251 248 245 243 241 239 238 238 239 241 242 244 245 244 240 233 229 229 230 230 230 230 232 232 229 228 232 236
286 286 286 286 285 285 285 284 284 283 283 283 282 282 280 279 278 277 276 274 273 272 269 268 266 264 262 260 258 256 254 253 253 252 251 250 247 244 242 238 236 236 236 237 239 241 242 244 245 242 236 230 228 229 230 230 230 231 232 230 228 229 233
286 286 287 286 286 285 284 283 283 283 284 284 283 282 281 279 278 277 277 276 275 274 272 270 268 266 263 261 258 255 253 252 251 250 249 249 247 244 240 236 234 234 234 235 237 239 241 244 244 243 238 232 228 228 229 229 230 230 231 231 230 229 230
286 287 287 287 286 285 284 284 284 284 285 285 283 282 281 280 279 279 278 277 277 276 274 272 270 267 265 263 260 256 252 251 250 249 248 247 245 242 238 233 232 232 233 233 235 238 240 243 243 243 240 234 229 227 227 228 230 230 230 231 230 230 230
286 287 288 288 286 285 285 285 286 286 286 285 284 284 284 283 282 281 280 279 278 278 276 274 272 270 266 264 261 258 253 250 248 247 245 244 241 238 234 231 230 231 231 232 234 236 238 241 241 241 239 236 231 227 226 227 228 228 228 229 229 230 230
286 287 288 287 286 286 287 287 288 288 288 287 287 287 287 286 285 283 283 282 280 279 277 276 274 272 268 263 261 258 254 249 245 242 240 238 236 234 231 230 229 230 231 231 233 235 236 238 238 237 236 236 232 228 226 226 226 226 227 228 228 229 229
287 287 286 286 287 288 290 291 291 290 290 291 291 290 289 288 288 288 287 285 282 280 278 276 273 270 266 262 258 255 252 247 243 240 236 233 232 230 229 229 229 230 231 231 231 233 234 234 233 233 233 234 232 229 227 226 225 225 226 227 227 228 228
286 286 286 287 290 292 293 294 293 293 294 295 294 293 292 291 291 291 289 285 281 278 277 275 272 269 266 260 255 251 249 247 244 239 234 230 229 227 227 227 228 229 229 229 229 230 230 229 229 229 231 232 231 229 228 226 224 225 225 226 227 227 228
Height
5755 5757 5758 5759 5760 5761 5761 5762 5762 5763 5763 5763 5764 5766 5767 5768 5769 5769 5770 5772 5773 5774 5775 5777 5778 5780 5782 5784 5785 5786 5787 5789 5791 5793 5795 5795 5795 5798 5800 5801 5803 5807 5809 5811 5812 5812 5814 5816 5818 5819 5820 5822 5824 5826 5827 5829 5831 5831 5832 5834 5837 5836 5837
5751 5752 5753 5754 5755 5756 5757 5758 5759 5759 5759 5760 5760 5761 5762 5763 5764 5765 5765 5766 5768 5769 5771 5772 5773 5775 5777 5779 5780 5781 5782 5784 5786 5787 5788 5789 5790 5793 5794 5795 5798 5801 5804 5806 5806 5807 5808 5810 5812 5815 5816 5818 5819 5821 5823 5824 5826 5827 5827 5830 5832 5832 5832
5746 5747 5748 5749 5750 5751 5752 5753 5754 5755 5755 5756 5756 5756 5757 5757 5759 5759 5760 5761 5762 5764 5765 5767 5768 5770 5771 5772 5774 5775 5777 5779 5780 5781 5783 5784 5785 5788 5789 5790 5792 5795 5799 5801 5803 5803 5804 5805 5807 5810 5811 5813 5816 5818 5819 5821 5822 5823 5823 5826 5828 5828 5828
5741 5742 5743 5744 5745 5746 5747 5748 5748 5749 5750 5751 5751 5752 5752 5752 5753 5754 5755 5756 5756 5758 5760 5761 5763 5764 5765 5767 5768 5770 5771 5773 5775 5776 5777 5779 5780 5782 5784 5785 5787 5790 5793 5796 5799 5800 5800 5800 5801 5804 5806 5807 5811 5813 5814 5816 5818 5818 5819 5821 5823 5824 5824
5737 5737 5738 5738 5739 5740 5741 5742 5743 5744 5745 5746 5746 5747 5747 5748 5748 5749 5749 5750 5751 5752 5753 5755 5756 5758 5760 5761 5762 5763 5765 5767 5769 5771 5772 5773 5775 5777 5779 5780 5783 5785 5787 5791 5794 5795 5795 5796 5797 5799 5800 5801 5805 5808 5809 5811 5813 5814 5815 5816 5818 5820 5820
5732 5732 5733 5733 5733 5734 5734 5735 5736 5737 5739 5740 5741 5741 5742 5742 5743 5743 5744 5745 5745 5746 5747 5748 5750 5751 5753 5755 5757 5757 5758 5761 5763 5764 5766 5768 5770 5771 5773 5775 5777 5780 5782 5785 5787 5789 5790 5791 5793 5794 5795 5796 5798 5801 5803 5804 5807 5809 5810 5812 5813 5815 5816
5727 5727 5727 5728 5728 5728 5728 5729 5729 5730 5732 5733 5734 5735 5736 5737 5737 5738 5739 5739 5740 5741 5741 5742 5743 5745 5746 5748 5750 5752 5752 5754 5756 5757 5759 5763 5764 5765 5768 5770 5771 5774 5777 5779 5781 5783 5784 5785 5788 5789 5791 5791 5791 5794 5795 5796 5802 5804 5804 5807 5809 5810 5812
5722 5722 5722 5722 5722 5723 5723 5723 5723 5723 5724 5726 5727 5728 5729 5730 5731 5732 5733 5733 5734 5735 5736 5737 5737 5739 5740 5741 5743 5745 5746 5748 5750 5751 5753 5756 5758 5760 5762 5764 5766 5767 5770 5773 5775 5777 5778 5780 5783 5785 5786 5786 5786 5788 5788 5789 5795 5798 5799 5802 5803 5805 5807
5717 5717 5717 5717 5717 5717 5717 5717 5717 5717 5718 5719 5720 5721 5722 5723 5724 5725 5726 5727 5728 5729 5730 5731 5732 5732 5733 5735 5736 5738 5740 5741 5743 5745 5746 5748 5751 5753 5755 5757 5759 5761 5764 5767 5769 5770 5772 5774 5777 5779 5780 5781 5780 5781 5781 5782 5786 5791 5795 5796 5797 5799 5803
5712 5712 5711 5711 5711 5711 5711 5711 5711 5712 5712 5713 5713 5714 5715 5716 5717 5718 5719 5720 5721 5722 5723 5724 5725 5726 5727 5728 5729 5731 5733 5734 5736 5738 5739 5742 5744 5746 5748 5750 5753 5755 5757 5760 5763 5764 5766 5769 5772 5773 5774 5775 5776 5776 5776 5777 5780 5784 5788 5790 5791 5794 5797
5707 5706 5706 5706 5705 5705 5705 5705 5706 5706 5707 5707 5707 5708 5708 5709 5710 5711 5712 5713 5713 5715 5716 5717 5718 5720 5721 5722 5723 5724 5726 5727 5729 5730 5732 5735 5737 5739 5741 5744 5746 5748 5751 5754 5756 5759 5760 5762 5765 5767 5769 5770 5771 5771 5771 5772 5775 5778 5781 5783 5786 5789 5792
5701 5701 5700 5700 5699 5699 5699 5700 5700 5700 5701 5701 5702 5702 5702 5702 5703 5704 5705 5706 5706 5707 5708 5709 5711 5712 5714 5715 5716 5717 5719 5720 5722 5723 5725 5727 5730 5732 5733 5736 5739 5741 5744 5747 5750 5752 5753 5755 5757 5760 5762 5763 5765 5767 5767 5767 5769 5772 5775 5775 5779 5784 5786
5695 5695 5695 5694 5693 5693 5693 5694 5694 5695 5695 5695 5696 5696 5696 5696 5697 5698 5698 5699 5700 5700 5701 5702 5703 5704 5706 5708 5709 5711 5712 5713 5714 5716 5718 5720 5722 5724 5726 5729 5732 5734 5736 5739 5743 5746 5747 5748 5750 5752 5756 5758 5760 5762 5763 5763 5764 5767 5770 5768 5771 5777 5779
5689 5689 5689 5688 5687 5687 5688 5688 5688 5689 5690 5690 5690 5690 5690 5689 5690 5691 5692 5693 5693 5694 5694 5695 5696 5697 5698 5700 5702 5703 5705 5706 5707 5709 5711 5713 5715 5717 5719 5721 5724 5727 5729 5731 5736 5739 5740 5742 5744 5746 5749 5752 5755 5757 5758 5759 5760 5763 5765 5764 5765 5768 5771
5683 5683 5682 5682 5682 5682 5682 5682 5682 5683 5683 5684 5683 5684 5684 5683 5684 5685 5686 5686 5686 5687 5688 5688 5689 5690 5691 5692 5694 5695 5697 5699 5700 5702 5704 5706 5708 5709 5712 5714 5717 5720 5721 5724 5728 5731 5734 5736 5738 5740 5743 5747 5750 5752 5753 5755 5756 5759 5761 5760 5759 5761 5764
5677 5677 5676 5676 5676 5676 5676 5676 5676 5676 5677 5677 5677 5678 5677 5677 5677 5678 5679 5679 5680 5680 5681 5682 5682 5683 5684 5685 5686 5688 5689 5691 5693 5694 5697 5699 5701 5702 5704 5706 5709 5712 5714 5717 5720 5723 5727 5730 5732 5734 5737 5740 5744 5747 5748 5749 5751 5755 5758 5756 5754 5756 5760
5671 5670 5670 5670 5670 5669 5669 5669 5669 5669 5670 5670 5671 5671 5671 5671 5671 5671 5672 5672 5673 5673 5674 5675 5675 5676 5677 5678 5679 5681 5682 5683 5685 5687 5689 5692 5694 5695 5697 5698 5701 5704 5706 5709 5713 5716 5719 5722 5724 5728 5731 5734 5737 5740 5742 5743 5745 5749 5752 5751 5749 5751 5755
5665 5664 5664 5663 5663 5663 5663 5662 5662 5662 5662 5663 5663 5664 5664 5664 5664 5664 5664 5665 5665 5666 5666 5667 5668 5669 5670 5671 5672 5673 5675 5676 5678 5680 5682 5684 5686 5688 5690 5691 5693 5696 5699 5702 5705 5708 5711 5714 5716 5720 5724 5727 5730 5734 5736 5738 5741 5743 5745 5746 5744 5745 5749
5658 5658 5658 5657 5657 5657 5656 5655 5655 5655 5655 5655 5655 5656 5656 5656 5656 5656 5657 5657 5658 5658 5659 5659 5660 5661 5662 5662 5664 5665 5667 5668 5670 5672 5674 5676 5678 5680 5682 5684 5686 5688 5691 5694 5697 5700 5703 5706 5708 5711 5716 5719 5723 5727 5730 5732 5735 5737 5738 5740 5740 5740 5742
5652 5652 5652 5651 5651 5650 5649 5649 5648 5648 5647 5647 5647 5647 5648 5648 5648 5649 5649 5649 5649 5650 5651 5652 5652 5653 5654 5654 5655 5657 5658 5660 5662 5663 5666 5668 5670 5672 5675 5676 5678 5681 5684 5687 5690 5692 5694 5697 5701 5704 5708 5711 5715 5720 5722 5724 5728 5730 5732 5734 5735 5734 5736
5646 5646 5645 5645 5644 5643 5643 5642 5641 5641 5640 5640 5639 5639 5639 5640 5640 5641 5641 5641 5641 5642 5642 5643 5644 5645 5645 5646 5647 5648 5650 5652 5653 5655 5657 5659 5661 5664 5666 5668 5670 5673 5677 5680 5682 5684 5686 5689 5692 5697 5700 5703 5707 5711 5714 5717 5721 5723 5726 5728 5729 5728 5730
5640 5640 5639 5638 5638 5636 5636 5635 5634 5634 5633 5632 5632 5631 5631 5631 5632 5632 5633 5633 5633 5634 5634 5635 5636 5636 5636 5637 5638 5639 5641 5643 5645 5646 5648 5651 5653 5656 5658 5660 5662 5665 5669 5673 5675 5677 5679 5682 5684 5688 5693 5696 5699 5702 5705 5711 5714 5715 5719 5722 5722 5721 5723
5634 5633 5632 5632 5631 5630 5629 5628 5627 5627 5626 5625 5624 5624 5623 5623 5623 5624 5624 5625 5625 5625 5626 5627 5628 5628 5628 5628 5629 5630 5632 5634 5636 5637 5639 5642 5645 5647 5650 5652 5654 5657 5660 5664 5667 5669 5672 5674 5677 5680 5684 5688 5692 5694 5698 5703 5706 5708 5713 5716 5715 5715 5718
5627 5626 5626 5625 5624 5623 5622 5621 5620 5619 5618 5618 5616 5616 5615 5615 5615 5615 5616 5616 5617 5617 5618 5619 5619 5619 5619 5619 5619 5620 5622 5624 5626 5628 5630 5633 5636 5638 5641 5643 5646 5649 5651 5655 5659 5661 5664 5667 5669 5673 5676 5679 5684 5687 5691 5695 5698 5701 5706 5708 5708 5709 5713
5621 5620 5619 5618 5617 5616 5615 5614 5613 5612 5611 5610 5609 5608 5608 5607 5607 5607 5607 5608 5608 5608 5609 5610 5610 5610 5610 5609 5609 5610 5611 5614 5616 5619 5621 5624 5626 5629 5632 5635 5637 5640 5643 5647 5650 5653 5656 5659 5662 5665 5668 5671 5675 5679 5683 5689 5692 5695 5699 5701 5702 5703 5708
5614 5613 5612 5611 5610 5609 5608 5607 5606 5604 5603 5602 5601 5601 5600 5599 5598 5598 5597 5598 5598 5599 5600 5600 5601 5601 5601 5600 5599 5600 5601 5603 5605 5609 5612 5614 5617 5620 5623 5626 5629 5632 5635 5638 5641 5644 5648 5651 5654 5658 5660 5663 5667 5670 5676 5681 5685 5689 5693 5695 5696 5698 5702
5608 5607 5606 5605 5603 5602 5601 5599 5598 5597 5595 5594 5594 5593 5592 5591 5590 5589 5588 5588 5589 5590 5590 5590 5591 5591 5591 5591 5590 5589 5590 5592 5594 5598 5601 5604 5607 5610 5614 5617 5620 5624 5628 5630 5632 5636 5639 5643 5646 5649 5652 5655 5659 5663 5668 5673 5676 5681 5686 5688 5691 5694 5697
5602 5601 5600 5599 5597 5596 5594 5593 5591 5589 5588 5587 5586 5585 5584 5583 5582 5581 5580 5579 5579 5580 5580 5580 5580 5581 5581 5581 5580 5579 5580 5581 5583 5586 5590 5594 5597 5600 5604 5607 5611 5616 5619 5621 5625 5628 5631 5634 5637 5640 5643 5647 5652 5656 5660 5665 5669 5673 5678 5681 5685 5688 5691
5596 5595 5594 5593 5591 5589 5588 5586 5584 5582 5581 5580 5578 5577 5576 5574 5573 5572 5572 5570 5570 5571 5571 5570 5570 5570 5570 5570 5569 5569 5570 5571 5572 5575 5579 5583 5586 5590 5594 5598 5602 5606 5610 5613 5617 5620 5623 5625 5627 5630 5635 5639 5644 5647 5651 5656 5662 5666 5670 5675 5679 5682 5685
5590 5589 5588 5586 5584 5582 5581 5579 5577 5575 5574 5572 5571 5569 5567 5566 5565 5564 5563 5562 5561 5561 5561 5560 5559 5559 5559 5558 5558 5559 5560 5560 5562 5564 5568 5571 5575 5579 5583 5588 5592 5596 5601 5606 5609 5612 5614 5616 5617 5622 5627 5631 5635 5638 5643 5650 5655 5659 5663 5668 5672 5676 5679
5584 5582 5581 5579 5577 5575 5574 5572 5570 5568 5567 5565 5563 5561 5559 5558 5557 5555 5554 5553 5551 5550 5551 5550 5549 5548 5548 5547 5547 5548 5549 5549 5551 5555 5557 5560 5564 5569 5573 5578 5583 5587 5592 5598 5602 5604 5606 5608 5610 5614 5618 5622 5627 5632 5638 5645 5649 5652 5657 5662 5665 5669 5673
5577 5575 5574 5572 5570 5569 5567 5565 5563 5562 5560 5558 5556 5553 5551 5550 5549 5547 5545 5544 5542 5541 5541 5540 5539 5538 5537 5536 5536 5537 5537 5538 5541 5545 5547 5550 5555 5559 5564 5569 5574 5578 5584 5590 5594 5596 5598 5600 5603 5606 5609 5615 5621 5626 5632 5638 5642 5646 5651 5655 5659 5663 5667
5571 5569 5567 5565 5564 5562 5560 5559 5557 5555 5553 5550 5548 5546 5543 5542 5541 5540 5538 5536 5534 5533 5532 5531 5530 5529 5528 5527 5527 5526 5527 5529 5532 5535 5538 5541 5546 5551 5555 5560 5565 5571 5576 5582 5586 5588 5591 5594 5596 5599 5603 5609 5615 5620 5625 5630 5634 5638 5643 5647 5652 5657 5661
5565 5563 5561 5559 5558 5556 5554 5552 5550 5548 5546 5543 5541 5538 5536 5534 5533 5532 5530 5528 5526 5525 5523 5522 5522 5520 5519 5518 5518 5517 5518 5520 5523 5526 5530 5534 5538 5543 5547 5552 5558 5563 5568 5574 5578 5581 5584 5587 5589 5593 5597 5603 5608 5613 5617 5621 5624 5630 5635 5639 5644 5650 5655
5559 5557 5555 5554 5552 5550 5548 5546 5543 5541 5539 5537 5534 5532 5529 5527 5525 5524 5522 5520 5518 5516 5515 5514 5513 5512 5511 5510 5510 5510 5510 5513 5515 5518 5522 5526 5531 5535 5540 5545 5550 5555 5560 5566 5570 5573 5577 5579 5582 5586 5591 5595 5600 5605 5608 5611 5616 5622 5627 5631 5637 5643 5647
5554 5552 5550 5548 5546 5544 5542 5539 5537 5535 5533 5530 5528 5525 5522 5520 5518 5516 5514 5512 5510 5508 5507 5506 5504 5503 5503 5503 5503 5504 5504 5506 5508 5511 5515 5520 5524 5528 5533 5538 5543 5547 5553 5558 5562 5566 5569 5572 5575 5580 5584 5588 5593 5597 5600 5604 5610 5615 5620 5625 5630 5635 5640
5549 5547 5545 5543 5541 5538 5536 5534 5532 5529 5527 5524 5521 5519 5516 5514 5512 5509 5506 5505 5503 5501 5500 5499 5498 5497 5496 5496 5497 5498 5499 5500 5503 5506 5509 5513 5517 5521 5526 5531 5535 5540 5545 5550 5554 5558 5562 5565 5569 5574 5578 5583 5587 5590 5593 5598 5603 5608 5613 5619 5624 5629 5634